Location: Sternwarte ZA, Rosenfeld-Brittheim
(48.2889°N, 8.6789°E)
Time: 06:34:26
(UTC+02:00)

ISS - Pass Details

Date: 16 September 2018
Orbit: 403 x 409 km, 51.6° (Epoch: 24 September)

Event Time Altitude Azimuth Distance (km) Brightness Sun altitude
Exits shadow 05:43:13 28° 246° (WSW) 791 -3.0 -13.8°
Maximum altitude 05:44:02 33° 215° (SW) 708 -3.1 -13.7°
Drops below altitude 10° 05:47:00 10° 149° (SSE) 1,454 -0.9 -13.2°
Sets 05:49:10 0° 140° (SE) 2,309 0.3 -12.9°
